Location: Newark
(52.3500°N, 175.9667°E)
Time: 21:54:53
(UTC+00:00)

Transit 4A - Pass Details

Date: 20 April 2021
Orbit: 871 x 974 km, 66.8° (Epoch: 16 May)

Event Time Altitude Azimuth Distance (km) Brightness Sun altitude
Rises 21:55:45 0° 311° (NW) 3,509 10.5 40.8°
Reaches altitude 10° 21:59:34 10° 287° (WNW) 2,546 9.9 41.2°
Maximum altitude 22:02:22 14° 258° (WSW) 2,269 9.8 41.5°
Drops below altitude 10° 22:05:08 10° 229° (SW) 2,521 10.3 41.8°
Sets 22:08:53 0° 205° (SSW) 3,447 11.1 42.2°
